Location: Anna District 4 Election Precinct
(37.4833°N, 89.2195°W)
Time: 14:29:07
(UTC+00:00)

SAR-Lupe-4 - Pass Details

Date: 29 October 2020
Orbit: 481 x 484 km, 98.2° (Epoch: 25 November)

Event Time Altitude Azimuth Distance (km) Brightness Sun altitude
Rises 23:23:53 0° 21° (NNE) 2,548 6.9 -5.1°
Reaches altitude 10° 23:26:03 10° 30° (NNE) 1,664 5.9 -5.6°
Maximum altitude 23:29:25 38° 99° (E) 750 4.1 -6.2°
Drops below altitude 10° 23:32:45 10° 169° (S) 1,652 6.3 -6.9°
Sets 23:34:53 0° 178° (S) 2,527 7.3 -7.3°
